Location: Iesi
(43.5167°N, 13.2333°E)
Time: 03:19:12
(UTC+00:00)

Cosmos 2333 Rocket - Pass Details

Date: 08 August 2020
Orbit: 838 x 864 km, 70.8° (Epoch: 25 September)

Event Time Altitude Azimuth Distance (km) Brightness Sun altitude
Rises 22:33:11 0° 338° (NNW) 3,454 6.5 -30.0°
Reaches altitude 10° 22:35:46 10° 344° (NNW) 2,513 5.6 -30.1°
Maximum altitude 22:41:21 49° 59° (ENE) 1,108 2.8 -30.3°
Enters shadow 22:41:23 49° 60° (ENE) 1,108 2.8 -30.3°
